| time (UTC) | temp F | wind direction | speed MPH | gust MPH | rain 1hr in | rain 24hr in | rain mn in | humidity % | barometer mb |
| 20260904192511 | 96 | 185 | 2.0 | 3.0 | 0.00 | 0.00 | 0.00 | 53 | 1018.7 |
| 20260904192008 | 94 | 186 | 1.0 | 2.0 | 0.00 | 0.00 | 0.00 | 55 | 1018.8 |
| 20260904191504 | 93 | 229 | 0.0 | 0.0 | 0.00 | 0.00 | 0.00 | 60 | 1019.1 |
| 20260904191000 | 92 | 231 | 0.0 | 1.0 | 0.00 | 0.00 | 0.00 | 60 | 1019.2 |
| 20260904190455 | 92 | 239 | 1.0 | 1.0 | 0.00 | 0.00 | 0.00 | 58 | 1019.2 |
| 20260904185951 | 94 | 45 | 2.0 | 3.0 | 0.00 | 0.00 | 0.00 | 56 | 1019.1 |
| 20260904185447 | 94 | 277 | 0.0 | 1.0 | 0.00 | 0.00 | 0.00 | 56 | 1019.4 |
| 20260904184942 | 94 | 92 | 2.0 | 3.0 | 0.00 | 0.00 | 0.00 | 54 | 1019.2 |
| 20260904184436 | 95 | 69 | 0.0 | 3.0 | 0.00 | 0.00 | 0.00 | 53 | 1019.4 |
| 20260904183932 | 96 | 188 | 1.0 | 2.0 | 0.00 | 0.00 | 0.00 | 53 | 1019.4 |
| 20260904183427 | 96 | 204 | 0.0 | 1.0 | 0.00 | 0.00 | 0.00 | 57 | 1019.4 |
| 20260904182922 | 95 | 41 | 2.0 | 7.0 | 0.00 | 0.00 | 0.00 | 54 | 1019.8 |
| 20260904182418 | 96 | 216 | 0.0 | 3.0 | 0.00 | 0.00 | 0.00 | 52 | 1019.7 |
| 20260904181913 | 95 | 162 | 0.0 | 2.0 | 0.00 | 0.00 | 0.00 | 52 | 1019.7 |
| 20260904181408 | 95 | 241 | 2.0 | 4.0 | 0.00 | 0.00 | 0.00 | 54 | 1019.8 |
| 20260904180903 | 96 | 80 | 1.0 | 2.0 | 0.00 | 0.00 | 0.00 | 52 | 1019.7 |
| 20260904180358 | 96 | 20 | 0.0 | 3.0 | 0.00 | 0.00 | 0.00 | 56 | 1019.7 |
| 20260904175857 | 96 | 223 | 0.0 | 2.0 | 0.00 | 0.00 | 0.00 | 57 | 1019.6 |
| 20260904175356 | 95 | 199 | 1.0 | 1.0 | 0.00 | 0.00 | 0.00 | 59 | 1019.7 |
| 20260904174850 | 95 | 128 | 1.0 | 2.0 | 0.00 | 0.00 | 0.00 | 58 | 1019.9 |
| 20260904174346 | 94 | 194 | 1.0 | 1.0 | 0.00 | 0.00 | 0.00 | 59 | 1019.9 |
| 20260904173842 | 94 | 199 | 1.0 | 3.0 | 0.00 | 0.00 | 0.00 | 59 | 1020.1 |
| 20260904173338 | 93 | 198 | 0.0 | 1.0 | 0.00 | 0.00 | 0.00 | 58 | 1020.1 |
| 20260904172833 | 92 | 206 | 0.0 | 0.0 | 0.00 | 0.00 | 0.00 | 62 | 1020.1 |
| 20260904172327 | 93 | 197 | 1.0 | 2.0 | 0.00 | 0.00 | 0.00 | 62 | 1020.3 |
| 20260904171822 | 93 | 214 | 1.0 | 2.0 | 0.00 | 0.00 | 0.00 | 59 | 1020.2 |
| 20260904171318 | 93 | 80 | 1.0 | 1.0 | 0.00 | 0.00 | 0.00 | 61 | 1020.4 |
| 20260904170813 | 93 | 225 | 0.0 | 1.0 | 0.00 | 0.00 | 0.00 | 62 | 1020.3 |
| 20260904170309 | 94 | 82 | 1.0 | 2.0 | 0.00 | 0.00 | 0.00 | 62 | 1020.3 |
| 20260904165808 | 94 | 219 | 0.0 | 2.0 | 0.00 | 0.00 | 0.00 | 62 | 1020.5 |
| 20260904165305 | 94 | 321 | 0.0 | 1.0 | 0.00 | 0.00 | 0.00 | 61 | 1020.8 |
| 20260904164756 | 92 | 225 | 0.0 | 1.0 | 0.00 | 0.00 | 0.00 | 64 | 1020.7 |
| 20260904164252 | 91 | 309 | 0.0 | 1.0 | 0.00 | 0.00 | 0.00 | 64 | 1020.4 |
| 20260904163748 | 93 | 21 | 0.0 | 3.0 | 0.00 | 0.00 | 0.00 | 62 | 1020.5 |
| 20260904163243 | 93 | 217 | 0.0 | 1.0 | 0.00 | 0.00 | 0.00 | 63 | 1020.9 |
| 20260904162742 | 92 | 235 | 0.0 | 2.0 | 0.00 | 0.00 | 0.00 | 63 | 1020.8 |
| 20260904162237 | 91 | 231 | 0.0 | 1.0 | 0.00 | 0.00 | 0.00 | 63 | 1020.9 |
| 20260904161733 | 92 | 231 | 0.0 | 1.0 | 0.00 | 0.00 | 0.00 | 63 | 1020.9 |
| 20260904161233 | 91 | 67 | 1.0 | 2.0 | 0.00 | 0.00 | 0.00 | 62 | 1021.1 |
| 20260904160728 | 92 | 200 | 2.0 | 4.0 | 0.00 | 0.00 | 0.00 | 62 | 1021.1 |
| 20260904160224 | 93 | 1 | 0.0 | 2.0 | 0.00 | 0.00 | 0.00 | 64 | 1021.1 |
| 20260904155724 | 92 | 220 | 0.0 | 1.0 | 0.00 | 0.00 | 0.00 | 65 | 1021.0 |
| 20260904155223 | 92 | 217 | 0.0 | 1.0 | 0.00 | 0.00 | 0.00 | 63 | 1021.3 |
| 20260904154721 | 92 | 213 | 0.0 | 1.0 | 0.00 | 0.00 | 0.00 | 64 | 1021.2 |
| 20260904154216 | 90 | 189 | 0.0 | 0.0 | 0.00 | 0.00 | 0.00 | 65 | 1021.4 |
| 20260904153712 | 91 | 25 | 1.0 | 2.0 | 0.00 | 0.00 | 0.00 | 66 | 1021.3 |
| 20260904153207 | 91 | 208 | 0.0 | 0.0 | 0.00 | 0.00 | 0.00 | 65 | 1021.1 |
| 20260904152703 | 92 | 209 | 0.0 | 0.0 | 0.00 | 0.00 | 0.00 | 65 | 1021.2 |
| 20260904152158 | 91 | 219 | 0.0 | 0.0 | 0.00 | 0.00 | 0.00 | 68 | 1021.1 |
| 20260904151654 | 90 | 244 | 0.0 | 1.0 | 0.00 | 0.00 | 0.00 | 66 | 1021.3 |
| 20260904151152 | 89 | 233 | 0.0 | 1.0 | 0.00 | 0.00 | 0.00 | 69 | 1021.0 |
| 20260904150648 | 88 | 222 | 0.0 | 1.0 | 0.00 | 0.00 | 0.00 | 70 | 1021.1 |
| 20260904150143 | 87 | 237 | 0.0 | 1.0 | 0.00 | 0.00 | 0.00 | 73 | 1021.1 |
| 20260904145642 | 87 | 246 | 1.0 | 3.0 | 0.00 | 0.00 | 0.00 | 71 | 1021.1 |
| 20260904145137 | 86 | 220 | 0.0 | 2.0 | 0.00 | 0.00 | 0.00 | 76 | 1021.1 |
| 20260904144632 | 85 | 203 | 0.0 | 1.0 | 0.00 | 0.00 | 0.00 | 75 | 1020.9 |
| 20260904144128 | 86 | 38 | 1.0 | 1.0 | 0.00 | 0.00 | 0.00 | 73 | 1021.0 |
| 20260904143624 | 86 | 242 | 0.0 | 2.0 | 0.00 | 0.00 | 0.00 | 75 | 1021.1 |
| 20260904143120 | 85 | 244 | 0.0 | 1.0 | 0.00 | 0.00 | 0.00 | 75 | 1021.1 |
| 20260904142617 | 86 | 248 | 0.0 | 0.0 | 0.00 | 0.00 | 0.00 | 76 | 1021.0 |
| 20260904142112 | 86 | 237 | 0.0 | 0.0 | 0.00 | 0.00 | 0.00 | 75 | 1021.1 |
| 20260904141607 | 84 | 248 | 0.0 | 1.0 | 0.00 | 0.00 | 0.00 | 79 | 1020.8 |
| 20260904141102 | 84 | 231 | 0.0 | 2.0 | 0.00 | 0.00 | 0.00 | 79 | 1021.0 |
| 20260904140557 | 84 | 237 | 0.0 | 2.0 | 0.00 | 0.00 | 0.00 | 79 | 1020.7 |
| 20260904140051 | 84 | 267 | 0.0 | 1.0 | 0.00 | 0.00 | 0.00 | 78 | 1021.0 |
| 20260904135550 | 84 | 267 | 0.0 | 0.0 | 0.00 | 0.00 | 0.00 | 78 | 1021.1 |
| 20260904135047 | 84 | 3 | 0.0 | 0.0 | 0.00 | 0.00 | 0.00 | 77 | 1021.1 |
| 20260904134542 | 83 | 4 | 0.0 | 1.0 | 0.00 | 0.00 | 0.00 | 80 | 1021.1 |
| 20260904134031 | 82 | 22 | 0.0 | 0.0 | 0.00 | 0.00 | 0.00 | 79 | 1021.0 |
| 20260904133525 | 83 | 47 | 0.0 | 2.0 | 0.00 | 0.00 | 0.00 | 80 | 1021.0 |
| 20260904133021 | 83 | 172 | 0.0 | 0.0 | 0.00 | 0.00 | 0.00 | 82 | 1021.2 |
| 20260904132516 | 82 | 153 | 0.0 | 0.0 | 0.00 | 0.00 | 0.00 | 82 | 1021.1 |
| 20260904132015 | 82 | 132 | 0.0 | 0.0 | 0.00 | 0.00 | 0.00 | 83 | 1020.9 |
| 20260904131510 | 82 | 108 | 0.0 | 0.0 | 0.00 | 0.00 | 0.00 | 83 | 1021.0 |
| 20260904131006 | 82 | 107 | 0.0 | 0.0 | 0.00 | 0.00 | 0.00 | 87 | 1021.1 |
| 20260904130505 | 82 | 107 | 0.0 | 0.0 | 0.00 | 0.00 | 0.00 | 84 | 1021.3 |
| 20260904130000 | 80 | 107 | 0.0 | 0.0 | 0.00 | 0.00 | 0.00 | 87 | 1021.1 |
| 20260904125456 | 80 | 107 | 0.0 | 0.0 | 0.00 | 0.00 | 0.00 | 88 | 1020.9 |
| 20260904124956 | 79 | 158 | 0.0 | 0.0 | 0.00 | 0.00 | 0.00 | 88 | 1021.1 |
| 20260904124452 | 78 | 158 | 0.0 | 0.0 | 0.00 | 0.00 | 0.00 | 89 | 1021.1 |
| 20260904123948 | 78 | 128 | 0.0 | 0.0 | 0.00 | 0.00 | 0.00 | 91 | 1021.4 |
| 20260904123442 | 78 | 158 | 0.0 | 1.0 | 0.00 | 0.00 | 0.00 | 90 | 1021.1 |
| 20260904122938 | 78 | 158 | 0.0 | 0.0 | 0.00 | 0.00 | 0.00 | 90 | 1021.4 |
| 20260904122437 | 78 | 158 | 0.0 | 0.0 | 0.00 | 0.00 | 0.00 | 90 | 1021.2 |
| 20260904121932 | 78 | 158 | 0.0 | 0.0 | 0.00 | 0.00 | 0.00 | 90 | 1021.1 |
| 20260904121428 | 76 | 157 | 0.0 | 0.0 | 0.00 | 0.00 | 0.00 | 94 | 1021.1 |
| 20260904120925 | 76 | 158 | 0.0 | 0.0 | 0.00 | 0.00 | 0.00 | 95 | 1021.2 |
| 20260904120420 | 75 | 158 | 0.0 | 0.0 | 0.00 | 0.00 | 0.00 | 98 | 1021.1 |
| 20260904115915 | 74 | 158 | 0.0 | 0.0 | 0.00 | 0.00 | 0.00 | 98 | 1021.0 |
| 20260904115410 | 74 | 158 | 0.0 | 0.0 | 0.00 | 0.00 | 0.00 | 99 | 1021.0 |
| 20260904114904 | 73 | 158 | 0.0 | 0.0 | 0.00 | 0.00 | 0.00 | 99 | 1020.9 |
| 20260904114359 | 73 | 158 | 0.0 | 0.0 | 0.00 | 0.00 | 0.00 | 99 | 1020.8 |
| 20260904113855 | 73 | 154 | 0.0 | 0.0 | 0.00 | 0.00 | 0.00 | 99 | 1021.0 |
| 20260904113354 | 72 | 153 | 0.0 | 0.0 | 0.00 | 0.00 | 0.00 | 99 | 1020.8 |
| 20260904112848 | 72 | 153 | 0.0 | 0.0 | 0.00 | 0.00 | 0.00 | 99 | 1020.7 |
| 20260904110207 | 72 | 153 | 0.0 | 0.0 | 0.00 | 0.00 | 0.00 | 99 | 1020.2 |
| 20260904105702 | 72 | 153 | 0.0 | 0.0 | 0.00 | 0.00 | 0.00 | 99 | 1020.2 |
| 20260904105157 | 72 | 153 | 0.0 | 0.0 | 0.00 | 0.00 | 0.00 | 99 | 1020.4 |
| 20260904104652 | 71 | 153 | 0.0 | 0.0 | 0.00 | 0.00 | 0.00 | 99 | 1020.3 |
| 20260904104148 | 71 | 153 | 0.0 | 0.0 | 0.00 | 0.00 | 0.00 | 99 | 1020.3 |
| 20260904103644 | 72 | 153 | 0.0 | 0.0 | 0.00 | 0.00 | 0.00 | 99 | 1020.2 |
| 20260904103139 | 72 | 153 | 0.0 | 0.0 | 0.00 | 0.00 | 0.00 | 99 | 1020.3 |
| 20260904102636 | 72 | 153 | 0.0 | 0.0 | 0.00 | 0.00 | 0.00 | 99 | 1020.4 |
| 20260904102130 | 72 | 153 | 0.0 | 0.0 | 0.00 | 0.00 | 0.00 | 99 | 1020.1 |
| 20260904101627 | 72 | 153 | 0.0 | 0.0 | 0.00 | 0.00 | 0.00 | 99 | 1020.0 |
| 20260904101122 | 72 | 153 | 0.0 | 0.0 | 0.00 | 0.00 | 0.00 | 99 | 1020.2 |
| 20260904100618 | 72 | 153 | 0.0 | 0.0 | 0.00 | 0.00 | 0.00 | 99 | 1020.1 |
| 20260904100113 | 72 | 153 | 0.0 | 0.0 | 0.00 | 0.00 | 0.00 | 99 | 1020.0 |
| 20260904095608 | 72 | 153 | 0.0 | 0.0 | 0.00 | 0.00 | 0.00 | 99 | 1020.1 |
| 20260904095103 | 72 | 153 | 0.0 | 0.0 | 0.00 | 0.00 | 0.00 | 99 | 1019.9 |
| 20260904094603 | 72 | 153 | 0.0 | 0.0 | 0.00 | 0.00 | 0.00 | 99 | 1019.9 |
| 20260904094057 | 73 | 153 | 0.0 | 0.0 | 0.00 | 0.00 | 0.00 | 99 | 1019.8 |
| 20260904093554 | 72 | 162 | 0.0 | 0.0 | 0.00 | 0.00 | 0.00 | 99 | 1019.8 |
| 20260904093049 | 72 | 162 | 0.0 | 0.0 | 0.00 | 0.00 | 0.00 | 99 | 1019.7 |
| 20260904092545 | 72 | 162 | 0.0 | 0.0 | 0.00 | 0.00 | 0.00 | 99 | 1019.7 |
| 20260904092041 | 72 | 162 | 0.0 | 0.0 | 0.00 | 0.00 | 0.00 | 99 | 1019.7 |
| 20260904091537 | 72 | 162 | 0.0 | 0.0 | 0.00 | 0.00 | 0.00 | 99 | 1019.9 |
| 20260904091036 | 73 | 162 | 0.0 | 0.0 | 0.00 | 0.00 | 0.00 | 99 | 1019.8 |
| 20260904090532 | 73 | 162 | 0.0 | 0.0 | 0.00 | 0.00 | 0.00 | 99 | 1019.7 |
| 20260904090028 | 73 | 162 | 0.0 | 0.0 | 0.00 | 0.00 | 0.00 | 99 | 1019.7 |
| 20260904085523 | 73 | 162 | 0.0 | 0.0 | 0.00 | 0.00 | 0.00 | 99 | 1019.6 |
| 20260904085022 | 73 | 162 | 0.0 | 0.0 | 0.00 | 0.00 | 0.00 | 99 | 1019.6 |
| 20260904084518 | 73 | 162 | 0.0 | 0.0 | 0.00 | 0.00 | 0.00 | 99 | 1019.6 |
| 20260904084015 | 73 | 162 | 0.0 | 0.0 | 0.00 | 0.00 | 0.00 | 99 | 1019.8 |
| 20260904083510 | 73 | 162 | 0.0 | 0.0 | 0.00 | 0.00 | 0.00 | 99 | 1019.7 |
| 20260904083006 | 73 | 162 | 0.0 | 0.0 | 0.00 | 0.00 | 0.00 | 99 | 1019.6 |
| 20260904082500 | 73 | 162 | 0.0 | 0.0 | 0.00 | 0.00 | 0.00 | 99 | 1019.5 |
| 20260904081955 | 73 | 162 | 0.0 | 0.0 | 0.00 | 0.00 | 0.00 | 99 | 1019.6 |
| 20260904081451 | 73 | 162 | 0.0 | 0.0 | 0.00 | 0.00 | 0.00 | 99 | 1019.4 |
| 20260904080946 | 74 | 162 | 0.0 | 0.0 | 0.00 | 0.00 | 0.00 | 99 | 1019.7 |
| 20260904080442 | 74 | 162 | 0.0 | 0.0 | 0.00 | 0.00 | 0.00 | 99 | 1019.5 |
| 20260904075937 | 74 | 162 | 0.0 | 0.0 | 0.00 | 0.00 | 0.00 | 99 | 1019.4 |
| 20260904075433 | 74 | 162 | 0.0 | 0.0 | 0.00 | 0.00 | 0.00 | 99 | 1019.6 |
| 20260904074932 | 74 | 162 | 0.0 | 0.0 | 0.00 | 0.00 | 0.00 | 99 | 1019.6 |
| 20260904074427 | 74 | 162 | 0.0 | 0.0 | 0.00 | 0.00 | 0.00 | 99 | 1019.6 |
| 20260904073922 | 74 | 162 | 0.0 | 0.0 | 0.00 | 0.00 | 0.00 | 99 | 1019.6 |
| 20260904073418 | 74 | 162 | 0.0 | 0.0 | 0.00 | 0.00 | 0.00 | 99 | 1019.7 |
| 20260904072914 | 74 | 162 | 0.0 | 0.0 | 0.00 | 0.00 | 0.00 | 99 | 1019.5 |
| 20260904072409 | 74 | 162 | 0.0 | 0.0 | 0.00 | 0.00 | 0.00 | 99 | 1019.4 |
| 20260904071904 | 74 | 162 | 0.0 | 0.0 | 0.00 | 0.00 | 0.00 | 99 | 1019.2 |
| 20260904071359 | 74 | 162 | 0.0 | 0.0 | 0.00 | 0.00 | 0.00 | 99 | 1019.5 |
| 20260904070854 | 74 | 162 | 0.0 | 0.0 | 0.00 | 0.00 | 0.00 | 99 | 1019.6 |
| 20260904070352 | 74 | 162 | 0.0 | 0.0 | 0.00 | 0.00 | 0.00 | 99 | 1019.5 |
| 20260904065847 | 74 | 162 | 0.0 | 0.0 | 0.00 | 0.00 | 0.00 | 99 | 1019.6 |
| 20260904065344 | 74 | 162 | 0.0 | 0.0 | 0.00 | 0.00 | 0.00 | 99 | 1019.7 |
| 20260904064838 | 74 | 162 | 0.0 | 0.0 | 0.00 | 0.00 | 0.00 | 99 | 1019.5 |
| 20260904064334 | 75 | 162 | 0.0 | 0.0 | 0.00 | 0.00 | 0.00 | 99 | 1019.5 |
| 20260904063830 | 75 | 162 | 0.0 | 0.0 | 0.00 | 0.00 | 0.00 | 99 | 1019.6 |
| 20260904063326 | 75 | 162 | 0.0 | 0.0 | 0.00 | 0.00 | 0.00 | 99 | 1019.7 |
| 20260904062821 | 75 | 162 | 0.0 | 0.0 | 0.00 | 0.00 | 0.00 | 99 | 1019.6 |
| 20260904062317 | 75 | 162 | 0.0 | 0.0 | 0.00 | 0.00 | 0.00 | 99 | 1019.5 |
| 20260904061812 | 75 | 162 | 0.0 | 0.0 | 0.00 | 0.00 | 0.00 | 99 | 1019.7 |
| 20260904061308 | 75 | 162 | 0.0 | 0.0 | 0.00 | 0.00 | 0.00 | 99 | 1019.7 |
| 20260904060805 | 75 | 162 | 0.0 | 0.0 | 0.00 | 0.00 | 0.00 | 99 | 1019.7 |
| 20260904060301 | 75 | 162 | 0.0 | 0.0 | 0.00 | 0.00 | 0.00 | 99 | 1019.9 |
| 20260904055756 | 75 | 162 | 0.0 | 0.0 | 0.00 | 0.00 | 0.00 | 99 | 1019.9 |
| 20260904055255 | 75 | 162 | 0.0 | 0.0 | 0.00 | 0.00 | 0.00 | 99 | 1019.9 |
| 20260904054751 | 75 | 162 | 0.0 | 0.0 | 0.00 | 0.00 | 0.00 | 99 | 1019.9 |
| 20260904054247 | 75 | 162 | 0.0 | 0.0 | 0.00 | 0.00 | 0.00 | 99 | 1020.0 |
| 20260904053742 | 75 | 162 | 0.0 | 0.0 | 0.00 | 0.00 | 0.00 | 99 | 1020.0 |
| 20260904053242 | 75 | 162 | 0.0 | 0.0 | 0.00 | 0.00 | 0.00 | 99 | 1020.1 |
| 20260904052738 | 76 | 162 | 0.0 | 0.0 | 0.00 | 0.00 | 0.00 | 99 | 1020.1 |
| 20260904052234 | 76 | 162 | 0.0 | 0.0 | 0.00 | 0.00 | 0.00 | 99 | 1020.1 |
| 20260904051731 | 76 | 162 | 0.0 | 0.0 | 0.00 | 0.00 | 0.00 | 99 | 1019.8 |
| 20260904051230 | 76 | 162 | 0.0 | 0.0 | 0.00 | 0.00 | 0.00 | 99 | 1020.2 |
| 20260904050725 | 76 | 162 | 0.0 | 0.0 | 0.00 | 0.00 | 0.00 | 99 | 1020.2 |
| 20260904050222 | 76 | 162 | 0.0 | 0.0 | 0.00 | 0.00 | 0.00 | 99 | 1020.2 |
| 20260904045717 | 76 | 162 | 0.0 | 0.0 | 0.00 | 0.00 | 0.00 | 99 | 1020.3 |
| 20260904045212 | 76 | 162 | 0.0 | 0.0 | 0.00 | 0.00 | 0.00 | 98 | 1020.1 |
| 20260904044707 | 76 | 162 | 0.0 | 0.0 | 0.00 | 0.00 | 0.00 | 98 | 1020.1 |
| 20260904044203 | 76 | 162 | 0.0 | 0.0 | 0.00 | 0.00 | 0.00 | 98 | 1020.3 |
| 20260904043700 | 76 | 162 | 0.0 | 0.0 | 0.00 | 0.00 | 0.00 | 97 | 1020.0 |
| 20260904043155 | 76 | 162 | 0.0 | 0.0 | 0.00 | 0.00 | 0.00 | 97 | 1020.2 |
| 20260904042651 | 77 | 162 | 0.0 | 0.0 | 0.00 | 0.00 | 0.00 | 97 | 1020.2 |
| 20260904042147 | 77 | 162 | 0.0 | 0.0 | 0.00 | 0.00 | 0.00 | 97 | 1020.2 |
| 20260904041641 | 77 | 162 | 0.0 | 0.0 | 0.00 | 0.00 | 0.00 | 97 | 1020.1 |
| 20260904041138 | 77 | 162 | 0.0 | 0.0 | 0.00 | 0.00 | 0.00 | 97 | 1020.2 |
| 20260904040634 | 77 | 162 | 0.0 | 0.0 | 0.00 | 0.00 | 0.00 | 97 | 1020.1 |
| 20260904040129 | 77 | 162 | 0.0 | 0.0 | 0.00 | 0.00 | 0.00 | 98 | 1020.3 |
| 20260904035625 | 77 | 162 | 0.0 | 0.0 | 0.00 | 0.05 | 0.05 | 97 | 1020.2 |
| 20260904035124 | 77 | 162 | 0.0 | 0.0 | 0.00 | 0.05 | 0.05 | 97 | 1020.3 |
| 20260904034618 | 77 | 162 | 0.0 | 0.0 | 0.00 | 0.05 | 0.05 | 97 | 1020.3 |
| 20260904034114 | 77 | 162 | 0.0 | 0.0 | 0.00 | 0.05 | 0.05 | 97 | 1020.2 |
| 20260904033610 | 77 | 162 | 0.0 | 0.0 | 0.00 | 0.05 | 0.05 | 96 | 1020.3 |
| 20260904033107 | 77 | 162 | 0.0 | 0.0 | 0.00 | 0.05 | 0.05 | 97 | 1020.3 |
| 20260904032602 | 77 | 162 | 0.0 | 0.0 | 0.00 | 0.05 | 0.05 | 97 | 1020.3 |
| 20260904032101 | 77 | 162 | 0.0 | 0.0 | 0.00 | 0.05 | 0.05 | 97 | 1020.1 |
| 20260904031601 | 78 | 159 | 0.0 | 0.0 | 0.00 | 0.05 | 0.05 | 96 | 1020.1 |
| 20260904031057 | 78 | 159 | 0.0 | 0.0 | 0.00 | 0.05 | 0.05 | 96 | 1020.3 |
| 20260904030552 | 78 | 159 | 0.0 | 0.0 | 0.00 | 0.05 | 0.05 | 96 | 1020.2 |
| 20260904030048 | 78 | 159 | 0.0 | 0.0 | 0.00 | 0.05 | 0.05 | 96 | 1020.3 |
| 20260904025543 | 78 | 159 | 0.0 | 0.0 | 0.00 | 0.05 | 0.05 | 96 | 1020.4 |
| 20260904025038 | 78 | 159 | 0.0 | 0.0 | 0.00 | 0.05 | 0.05 | 96 | 1020.3 |
| 20260904024533 | 78 | 159 | 0.0 | 0.0 | 0.00 | 0.05 | 0.05 | 96 | 1020.1 |
| 20260904024029 | 78 | 159 | 0.0 | 0.0 | 0.00 | 0.05 | 0.05 | 96 | 1020.0 |
| 20260904023525 | 78 | 159 | 0.0 | 0.0 | 0.00 | 0.05 | 0.05 | 95 | 1020.3 |
| 20260904023020 | 78 | 159 | 0.0 | 0.0 | 0.00 | 0.05 | 0.05 | 95 | 1020.1 |
| 20260904022515 | 78 | 158 | 0.0 | 0.0 | 0.00 | 0.05 | 0.05 | 95 | 1020.3 |
| 20260904022012 | 78 | 159 | 0.0 | 0.0 | 0.00 | 0.05 | 0.05 | 94 | 1020.2 |
| 20260904021508 | 79 | 159 | 0.0 | 0.0 | 0.00 | 0.05 | 0.05 | 94 | 1019.9 |
| 20260904021003 | 79 | 159 | 0.0 | 0.0 | 0.00 | 0.05 | 0.05 | 94 | 1019.9 |
| 20260904020458 | 80 | 159 | 0.0 | 0.0 | 0.00 | 0.05 | 0.05 | 93 | 1019.9 |
| 20260904015956 | 80 | 159 | 0.0 | 0.0 | 0.00 | 0.05 | 0.05 | 92 | 1020.1 |
| 20260904015452 | 80 | 159 | 0.0 | 0.0 | 0.00 | 0.05 | 0.05 | 92 | 1019.9 |
| 20260904014950 | 80 | 159 | 0.0 | 0.0 | 0.00 | 0.05 | 0.05 | 92 | 1019.7 |
| 20260904014445 | 79 | 159 | 0.0 | 0.0 | 0.00 | 0.05 | 0.05 | 92 | 1019.7 |
| 20260904013941 | 80 | 159 | 0.0 | 0.0 | 0.00 | 0.05 | 0.05 | 92 | 1019.7 |
| 20260904013437 | 80 | 159 | 0.0 | 0.0 | 0.00 | 0.05 | 0.05 | 91 | 1019.8 |
| 20260904012933 | 80 | 159 | 0.0 | 0.0 | 0.00 | 0.05 | 0.05 | 91 | 1019.8 |
| 20260904012432 | 80 | 159 | 0.0 | 0.0 | 0.00 | 0.05 | 0.05 | 92 | 1019.6 |
| 20260904011927 | 80 | 159 | 0.0 | 0.0 | 0.00 | 0.05 | 0.05 | 91 | 1019.5 |
| 20260904011422 | 80 | 159 | 0.0 | 0.0 | 0.00 | 0.05 | 0.05 | 91 | 1019.6 |
| 20260904010917 | 80 | 159 | 0.0 | 0.0 | 0.00 | 0.05 | 0.05 | 92 | 1019.9 |
| 20260904010414 | 80 | 159 | 0.0 | 0.0 | 0.00 | 0.05 | 0.05 | 92 | 1019.6 |
| 20260904005908 | 79 | 159 | 0.0 | 0.0 | 0.00 | 0.05 | 0.05 | 92 | 1019.3 |
| 20260904005404 | 79 | 159 | 0.0 | 0.0 | 0.00 | 0.05 | 0.05 | 92 | 1019.4 |
| 20260904004858 | 80 | 158 | 0.0 | 0.0 | 0.00 | 0.05 | 0.05 | 93 | 1019.3 |
| 20260904004355 | 80 | 158 | 0.0 | 0.0 | 0.00 | 0.05 | 0.05 | 93 | 1019.1 |
| 20260904003849 | 79 | 158 | 0.0 | 0.0 | 0.00 | 0.05 | 0.05 | 93 | 1019.0 |
| 20260904003345 | 80 | 29 | 1.0 | 1.0 | 0.00 | 0.05 | 0.05 | 93 | 1019.2 |
| 20260904002840 | 80 | 249 | 2.0 | 2.0 | 0.00 | 0.05 | 0.05 | 92 | 1018.8 |
| 20260904002337 | 81 | 177 | 0.0 | 0.0 | 0.00 | 0.05 | 0.05 | 91 | 1018.8 |
| 20260904001836 | 81 | 155 | 0.0 | 0.0 | 0.00 | 0.05 | 0.05 | 86 | 1018.8 |
| 20260904001331 | 80 | 155 | 0.0 | 0.0 | 0.00 | 0.05 | 0.05 | 88 | 1018.8 |
| 20260904000826 | 80 | 153 | 0.0 | 1.0 | 0.00 | 0.05 | 0.05 | 89 | 1019.0 |
| 20260904000325 | 79 | 357 | 0.0 | 2.0 | 0.00 | 0.05 | 0.05 | 93 | 1019.0 |
| 20260903235820 | 79 | 180 | 0.0 | 0.0 | 0.00 | 0.05 | 0.05 | 95 | 1019.0 |
| 20260903235317 | 79 | 228 | 0.0 | 0.0 | 0.00 | 0.05 | 0.05 | 95 | 1018.7 |
| 20260903234815 | 79 | 156 | 1.0 | 1.0 | 0.00 | 0.05 | 0.05 | 95 | 1018.7 |
| 20260903234312 | 80 | 235 | 0.0 | 0.0 | 0.00 | 0.05 | 0.05 | 95 | 1018.6 |
| 20260903233808 | 80 | 217 | 0.0 | 0.0 | 0.00 | 0.05 | 0.05 | 95 | 1018.5 |
| 20260903233304 | 81 | 231 | 0.0 | 0.0 | 0.00 | 0.05 | 0.05 | 95 | 1018.6 |
| 20260903232803 | 81 | 237 | 0.0 | 0.0 | 0.00 | 0.05 | 0.05 | 94 | 1018.6 |
| 20260903232259 | 81 | 241 | 0.0 | 0.0 | 0.00 | 0.05 | 0.05 | 92 | 1018.3 |
| 20260903231758 | 81 | 241 | 0.0 | 0.0 | 0.00 | 0.05 | 0.05 | 93 | 1018.6 |
| 20260903231253 | 82 | 235 | 0.0 | 0.0 | 0.00 | 0.05 | 0.05 | 93 | 1018.4 |
| 20260903230748 | 82 | 239 | 0.0 | 1.0 | 0.00 | 0.05 | 0.05 | 90 | 1018.5 |
| 20260903230248 | 82 | 232 | 0.0 | 0.0 | 0.00 | 0.05 | 0.05 | 88 | 1018.5 |
| 20260903225744 | 83 | 229 | 0.0 | 0.0 | 0.00 | 0.05 | 0.05 | 92 | 1018.3 |
| 20260903225241 | 83 | 235 | 0.0 | 0.0 | 0.00 | 0.05 | 0.05 | 93 | 1018.3 |
| 20260903224737 | 82 | 231 | 0.0 | 0.0 | 0.00 | 0.05 | 0.05 | 93 | 1018.5 |
| 20260903224233 | 82 | 232 | 0.0 | 0.0 | 0.00 | 0.05 | 0.05 | 94 | 1018.4 |
| 20260903223728 | 82 | 229 | 0.0 | 0.0 | 0.00 | 0.05 | 0.05 | 95 | 1018.3 |
| 20260903223226 | 82 | 229 | 0.0 | 0.0 | 0.00 | 0.05 | 0.05 | 95 | 1018.6 |
| 20260903222721 | 82 | 229 | 0.0 | 0.0 | 0.00 | 0.05 | 0.05 | 94 | 1018.4 |
| 20260903222220 | 82 | 229 | 0.0 | 0.0 | 0.00 | 0.05 | 0.05 | 94 | 1018.3 |
| 20260903221716 | 82 | 230 | 0.0 | 0.0 | 0.00 | 0.05 | 0.05 | 94 | 1018.3 |
| 20260903221214 | 81 | 234 | 0.0 | 0.0 | 0.00 | 0.05 | 0.05 | 95 | 1018.4 |
| 20260903220713 | 81 | 241 | 0.0 | 0.0 | 0.00 | 0.05 | 0.05 | 94 | 1018.3 |
| 20260903220208 | 81 | 226 | 0.0 | 0.0 | 0.00 | 0.05 | 0.05 | 93 | 1018.3 |
| 20260903215707 | 82 | 220 | 0.0 | 0.0 | 0.00 | 0.05 | 0.05 | 91 | 1018.5 |
| 20260903215202 | 82 | 224 | 0.0 | 1.0 | 0.00 | 0.05 | 0.05 | 87 | 1018.4 |
| 20260903214700 | 83 | 255 | 1.0 | 1.0 | 0.24 | 0.05 | 0.05 | 84 | 1018.6 |
| 20260903214156 | 84 | 190 | 1.0 | 3.0 | 0.24 | 0.04 | 0.04 | 77 | 1018.4 |
| 20260903213650 | 90 | 168 | 1.0 | 4.0 | 0.00 | 0.00 | 0.00 | 70 | 1018.4 |
| 20260903213147 | 91 | 48 | 0.0 | 13.0 | 0.00 | 0.00 | 0.00 | 60 | 1018.6 |
| 20260903212642 | 93 | 185 | 1.0 | 2.0 | 0.00 | 0.00 | 0.00 | 58 | 1018.4 |
| 20260903212137 | 93 | 6 | 0.0 | 2.0 | 0.00 | 0.00 | 0.00 | 57 | 1018.5 |
| 20260903211632 | 92 | 20 | 1.0 | 2.0 | 0.00 | 0.00 | 0.00 | 57 | 1018.3 |
| 20260903211129 | 92 | 40 | 1.0 | 4.0 | 0.00 | 0.00 | 0.00 | 57 | 1018.4 |
| 20260903210624 | 92 | 54 | 2.0 | 4.0 | 0.00 | 0.00 | 0.00 | 57 | 1018.4 |
| 20260903210120 | 92 | 35 | 3.0 | 4.0 | 0.00 | 0.00 | 0.00 | 57 | 1018.5 |
| 20260903205619 | 92 | 35 | 3.0 | 4.0 | 0.00 | 0.00 | 0.00 | 58 | 1018.3 |
| 20260903205113 | 92 | 184 | 3.0 | 4.0 | 0.00 | 0.00 | 0.00 | 58 | 1018.4 |
| 20260903204608 | 94 | 154 | 0.0 | 3.0 | 0.00 | 0.00 | 0.00 | 57 | 1018.5 |
| 20260903204104 | 96 | 42 | 2.0 | 3.0 | 0.00 | 0.00 | 0.00 | 52 | 1018.5 |
| 20260903203559 | 95 | 235 | 0.0 | 1.0 | 0.00 | 0.00 | 0.00 | 53 | 1018.6 |
| 20260903203054 | 95 | 31 | 3.0 | 4.0 | 0.00 | 0.00 | 0.00 | 54 | 1018.7 |
| 20260903202549 | 95 | 186 | 2.0 | 4.0 | 0.00 | 0.00 | 0.00 | 55 | 1018.6 |
| 20260903202045 | 96 | 65 | 1.0 | 4.0 | 0.00 | 0.00 | 0.00 | 53 | 1018.7 |
| 20260903201539 | 95 | 80 | 2.0 | 4.0 | 0.00 | 0.00 | 0.00 | 53 | 1018.9 |
| 20260903201039 | 93 | 40 | 0.0 | 2.0 | 0.00 | 0.00 | 0.00 | 57 | 1018.9 |
| 20260903200534 | 93 | 26 | 0.0 | 1.0 | 0.00 | 0.00 | 0.00 | 56 | 1019.0 |
| 20260903200029 | 93 | 25 | 0.0 | 2.0 | 0.00 | 0.00 | 0.00 | 56 | 1019.2 |
| 20260903195525 | 94 | 44 | 1.0 | 3.0 | 0.00 | 0.00 | 0.00 | 55 | 1019.1 |
| 20260903195020 | 95 | 50 | 5.0 | 6.0 | 0.00 | 0.00 | 0.00 | 53 | 1019.1 |
| 20260903194515 | 94 | 79 | 0.0 | 1.0 | 0.00 | 0.00 | 0.00 | 53 | 1019.3 |
| 20260903194011 | 94 | 93 | 0.0 | 2.0 | 0.00 | 0.00 | 0.00 | 56 | 1019.3 |
| 20260903193507 | 93 | 286 | 0.0 | 0.0 | 0.00 | 0.00 | 0.00 | 58 | 1019.3 |